• Em Portugal
  • Lista de países
  • Para 7 dias
  • Temperatura da água
  • Mapas de satélite
  • Mapa do tempo
  • Widgets de tempo
  • user-avatar
    Iniciar Sessão

    Previsão horária em Patoka

    Hoje, 18 Julho, Quarta-feira

    Tempo Temperatura Precipitação Vento Pressão Humidade
    00:00 +19°C° 0,2 mm 4 m/s 744 mmHg 94%
    01:00 +18°C° 0,2 mm 4 m/s 744 mmHg 94%
    02:00 +17°C° 0,7 mm 5 m/s 744 mmHg 94%
    03:00 +17°C° 0,7 mm 5 m/s 744 mmHg 94%
    04:00 +17°C° 0,7 mm 6 m/s 744 mmHg 94%
    05:00 +17°C° 1,2 mm 6 m/s 744 mmHg 94%
    06:00 +17°C° 1,2 mm 6 m/s 744 mmHg 94%
    07:00 +17°C° 1,2 mm 7 m/s 745 mmHg 93%
    08:00 +17°C° 1,5 mm 7 m/s 745 mmHg 93%
    09:00 +18°C° 1,5 mm 7 m/s 745 mmHg 93%
    10:00 +18°C° 1,5 mm 7 m/s 745 mmHg 93%
    11:00 +18°C° 0,9 mm 7 m/s 746 mmHg 92%
    12:00 +18°C° 0,9 mm 7 m/s 746 mmHg 91%
    13:00 +18°C° 0,9 mm 7 m/s 746 mmHg 91%
    14:00 +19°C° 0,3 mm 6 m/s 746 mmHg 89%
    15:00 +20°C° 0,3 mm 6 m/s 746 mmHg 88%
    16:00 +20°C° 0,3 mm 6 m/s 746 mmHg 87%
    17:00 +20°C° 0,2 mm 5 m/s 747 mmHg 88%
    18:00 +20°C° 0,2 mm 5 m/s 747 mmHg 89%
    19:00 +19°C° 0,2 mm 4 m/s 747 mmHg 91%
    20:00 +19°C° 0,1 mm 4 m/s 747 mmHg 92%
    21:00 +19°C° 0,1 mm 3 m/s 748 mmHg 93%
    22:00 +19°C° 0,1 mm 3 m/s 748 mmHg 94%
    23:00 +18°C° 0,2 mm 3 m/s 748 mmHg 95%

    Amanhã, 19 Julho, Quinta-feira

    Tempo Temperatura Precipitação Vento Pressão Humidade
    00:00 +18°C° 0,2 mm 3 m/s 748 mmHg 95%
    01:00 +18°C° 0,2 mm 3 m/s 748 mmHg 95%
    02:00 +18°C° 0,1 mm 3 m/s 748 mmHg 95%
    03:00 +18°C° 0,1 mm 3 m/s 748 mmHg 95%
    04:00 +17°C° 0,1 mm 4 m/s 748 mmHg 95%
    05:00 +18°C° 0 mm 4 m/s 748 mmHg 94%
    06:00 +18°C° 0 mm 4 m/s 748 mmHg 93%
    07:00 +19°C° 0 mm 5 m/s 748 mmHg 91%
    08:00 +19°C° 0,3 mm 5 m/s 748 mmHg 91%
    09:00 +19°C° 0,3 mm 5 m/s 749 mmHg 91%
    10:00 +19°C° 0,3 mm 5 m/s 749 mmHg 91%
    11:00 +19°C° 0,5 mm 5 m/s 749 mmHg 91%
    12:00 +19°C° 0,5 mm 5 m/s 749 mmHg 91%
    13:00 +19°C° 0,5 mm 5 m/s 749 mmHg 92%
    14:00 +19°C° 0,3 mm 4 m/s 749 mmHg 92%
    15:00 +19°C° 0,3 mm 4 m/s 749 mmHg 92%
    16:00 +19°C° 0,3 mm 4 m/s 749 mmHg 92%
    17:00 +19°C° 0,1 mm 4 m/s 749 mmHg 92%
    18:00 +19°C° 0,1 mm 3 m/s 749 mmHg 91%
    19:00 +20°C° 0,1 mm 3 m/s 749 mmHg 91%
    20:00 +19°C° 0 mm 3 m/s 749 mmHg 92%
    21:00 +18°C° 0 mm 2 m/s 749 mmHg 94%
    22:00 +17°C° 0 mm 2 m/s 749 mmHg 95%
    23:00 +17°C° 0 mm 2 m/s 749 mmHg 95%

    Depois de amanhã, 20 Julho, Sexta-feira

    Tempo Temperatura Precipitação Vento Pressão Humidade
    00:00 +17°C° 0 mm 2 m/s 749 mmHg 95%
    01:00 +17°C° 0 mm 2 m/s 749 mmHg 95%
    02:00 +17°C° 0 mm 2 m/s 749 mmHg 95%
    03:00 +16°C° 0 mm 2 m/s 749 mmHg 95%
    04:00 +16°C° 0 mm 2 m/s 749 mmHg 94%
    05:00 +17°C° 0 mm 2 m/s 749 mmHg 90%
    06:00 +18°C° 0 mm 2 m/s 749 mmHg 85%
    07:00 +19°C° 0 mm 3 m/s 749 mmHg 81%
    08:00 +20°C° 0 mm 3 m/s 749 mmHg 71%
    09:00 +22°C° 0 mm 3 m/s 749 mmHg 62%
    10:00 +24°C° 0 mm 3 m/s 749 mmHg 53%
    11:00 +25°C° 0 mm 3 m/s 749 mmHg 49%
    12:00 +26°C° 0 mm 3 m/s 749 mmHg 45%
    13:00 +27°C° 0 mm 3 m/s 748 mmHg 41%
    14:00 +27°C° 0 mm 3 m/s 748 mmHg 41%
    15:00 +27°C° 0 mm 3 m/s 748 mmHg 40%
    16:00 +28°C° 0 mm 3 m/s 748 mmHg 39%
    17:00 +26°C° 0 mm 2 m/s 748 mmHg 45%
    18:00 +25°C° 0 mm 2 m/s 747 mmHg 51%
    19:00 +24°C° 0 mm 1 m/s 747 mmHg 57%
    20:00 +22°C° 0 mm 1 m/s 747 mmHg 61%
    21:00 +21°C° 0 mm 1 m/s 747 mmHg 64%
    22:00 +19°C° 0 mm 1 m/s 747 mmHg 67%
    23:00 +19°C° 0 mm 1 m/s 747 mmHg 70%

    21 Julho, Sábado

    Tempo Temperatura Precipitação Vento Pressão Humidade
    00:00 +18°C° 0 mm 1 m/s 747 mmHg 72%
    01:00 +18°C° 0 mm 1 m/s 747 mmHg 75%
    02:00 +16°C° 0 mm 1 m/s 747 mmHg 76%
    03:00 +16°C° 0 mm 1 m/s 747 mmHg 76%
    04:00 +16°C° 0 mm 1 m/s 747 mmHg 77%
    05:00 +18°C° 0 mm 1 m/s 747 mmHg 73%
    06:00 +20°C° 0 mm 1 m/s 747 mmHg 68%
    07:00 +22°C° 0 mm 1 m/s 747 mmHg 63%
    08:00 +23°C° 0 mm 1 m/s 747 mmHg 58%
    09:00 +25°C° 0 mm 1 m/s 747 mmHg 53%
    10:00 +27°C° 0 mm 1 m/s 747 mmHg 47%
    11:00 +28°C° 0 mm 1 m/s 746 mmHg 45%
    12:00 +28°C° 0 mm 1 m/s 746 mmHg 43%
    13:00 +29°C° 0 mm 1 m/s 746 mmHg 41%
    14:00 +29°C° 0 mm 1 m/s 746 mmHg 42%
    15:00 +28°C° 0 mm 1 m/s 745 mmHg 43%
    16:00 +28°C° 0 mm 1 m/s 745 mmHg 44%
    17:00 +27°C° 0 mm 2 m/s 745 mmHg 50%
    18:00 +26°C° 0 mm 2 m/s 745 mmHg 56%
    19:00 +25°C° 0 mm 2 m/s 745 mmHg 61%
    20:00 +23°C° 0 mm 2 m/s 745 mmHg 64%
    21:00 +21°C° 0 mm 2 m/s 745 mmHg 67%
    22:00 +20°C° 0 mm 2 m/s 745 mmHg 70%
    23:00 +19°C° 0 mm 2 m/s 745 mmHg 72%

    22 Julho, Domingo

    Tempo Temperatura Precipitação Vento Pressão Humidade
    00:00 +19°C° 0 mm 2 m/s 745 mmHg 74%
    01:00 +18°C° 0 mm 2 m/s 745 mmHg 75%
    02:00 +19°C° 0 mm 1 m/s 745 mmHg 77%
    03:00 +18°C° 0 mm 1 m/s 745 mmHg 78%
    04:00 +18°C° 0 mm 1 m/s 745 mmHg 80%
    05:00 +19°C° 0 mm 1 m/s 745 mmHg 76%
    06:00 +20°C° 0 mm 1 m/s 746 mmHg 71%
    07:00 +22°C° 0 mm 1 m/s 746 mmHg 67%
    08:00 +23°C° 0 mm 2 m/s 746 mmHg 62%
    09:00 +24°C° 0 mm 2 m/s 746 mmHg 56%
    10:00 +25°C° 0 mm 3 m/s 746 mmHg 50%
    11:00 +26°C° 0 mm 3 m/s 746 mmHg 47%
    12:00 +26°C° 0 mm 4 m/s 746 mmHg 44%
    13:00 +27°C° 0 mm 4 m/s 746 mmHg 41%
    14:00 +27°C° 0 mm 4 m/s 746 mmHg 42%
    15:00 +26°C° 0 mm 4 m/s 746 mmHg 43%
    16:00 +26°C° 0 mm 4 m/s 746 mmHg 44%
    17:00 +25°C° 0 mm 3 m/s 746 mmHg 50%
    18:00 +24°C° 0 mm 3 m/s 746 mmHg 56%
    19:00 +23°C° 0 mm 2 m/s 747 mmHg 61%
    20:00 +21°C° 0 mm 2 m/s 747 mmHg 65%
    21:00 +20°C° 0 mm 2 m/s 747 mmHg 68%
    22:00 +18°C° 0 mm 2 m/s 748 mmHg 72%
    23:00 +18°C° 0 mm 2 m/s 748 mmHg 74%

    23 Julho, Segunda-feira

    Tempo Temperatura Precipitação Vento Pressão Humidade
    00:00 +17°C° 0 mm 2 m/s 748 mmHg 76%
    01:00 +17°C° 0 mm 2 m/s 748 mmHg 78%
    02:00 +17°C° 0 mm 2 m/s 748 mmHg 80%
    03:00 +16°C° 0 mm 1 m/s 749 mmHg 82%
    04:00 +16°C° 0 mm 1 m/s 749 mmHg 84%
    05:00 +18°C° 0 mm 1 m/s 749 mmHg 80%
    06:00 +19°C° 0 mm 2 m/s 749 mmHg 76%
    07:00 +20°C° 0 mm 2 m/s 749 mmHg 72%
    08:00 +21°C° 0 mm 2 m/s 749 mmHg 67%
    09:00 +24°C° 0 mm 2 m/s 749 mmHg 62%
    10:00 +25°C° 0 mm 3 m/s 749 mmHg 56%
    11:00 +25°C° 0,1 mm 3 m/s 749 mmHg 54%
    12:00 +26°C° 0,1 mm 3 m/s 749 mmHg 53%
    13:00 +26°C° 0,1 mm 3 m/s 749 mmHg 51%
    14:00 +26°C° 0 mm 3 m/s 749 mmHg 50%
    15:00 +26°C° 0 mm 3 m/s 749 mmHg 50%
    16:00 +26°C° 0 mm 3 m/s 748 mmHg 50%
    17:00 +25°C° 0 mm 3 m/s 749 mmHg 54%
    18:00 +25°C° 0 mm 2 m/s 749 mmHg 58%
    19:00 +24°C° 0 mm 2 m/s 749 mmHg 62%
    20:00 +21°C° 0 mm 2 m/s 749 mmHg 66%
    21:00 +21°C° 0 mm 1 m/s 749 mmHg 71%
    22:00 +19°C° 0 mm 1 m/s 749 mmHg 75%
    23:00 +18°C° 0 mm 1 m/s 749 mmHg 79%
    Mostrar mais